AirNav   Pilot Hours Calculator
 
 1064 users online  

3MS1 Thomas Field Airport
Holly Springs, Mississippi, USA

GOING TO HOLLY SPRINGS?


FAA INFORMATION EFFECTIVE 02 JANUARY 2020

Location

FAA Identifier: 3MS1
Lat/Long: 34-48-25.0000N 089-27-42.0000W
34-48.416667N 089-27.700000W
34.8069444,-89.4616667
(estimated)
Elevation: 485 ft. / 148 m (estimated)
Variation: 01E (1990)
From city: 2 miles NW of HOLLY SPRINGS, MS
Time zone: UTC -6 (UTC -5 during Daylight Saving Time)
Zip code: 38635

Airport Operations

Airport use: Private use. Permission required prior to landing
Activation date: 03/1994
Control tower: no
ARTCC: MEMPHIS CENTER
FSS: GREENWOOD FLIGHT SERVICE STATION
Attendance: UNATNDD
Segmented circle: no
Lights: ACTVT LIRL RWY 15/33 - 122.9

Airport Communications

WX AWOS-3 at OLV (19 nm NW): 119.925 (662-893-5906)

Nearby radio navigation aids

VOR radial/distance  VOR name  Freq  Var
HLIr035/2.8HOLLY SPRINGS VORTAC112.4003E
MEMr115/28.5MEMPHIS VORTAC117.5001E

Airport Services

Runway Information

Runway 15/33

Dimensions: 4188 x 50 ft. / 1277 x 15 m
Surface: asphalt
Runway edge lights: low intensity
RUNWAY 15  RUNWAY 33
Latitude: 34-48.733333N34-48.100000N
Longitude: 089-27.866667W089-27.533333W
Elevation: 460.0 ft.423.0 ft.
Traffic pattern: leftleft

Airport Ownership and Management from official FAA records

Ownership: Privately-owned
Owner: CHARLES THOMAS JR
1732 HWY 311 NORTH
HOLLY SPRINGS, MS 38635
Phone 662-252-9738
Manager: WILLIAM SCHNELLER
126 N SPRING ST
HOLLY SPRINGS, MS 38635
Phone (662) 252-3224

Additional Remarks

FOR CD CTC MEMPHIS APCH AT 901-842-8457.

Instrument Procedures

There are no published instrument procedures at 3MS1.

Some nearby airports with instrument procedures:

M41 - Holly Springs-Marshall County Airport (3 nm W)
KOLV - Olive Branch Airport (19 nm NW)
25M - Ripley Airport (23 nm E)
KFYE - Fayette County Airport (24 nm N)
KUOX - University-Oxford Airport (26 nm S)
 
Loc | Ops | Rwys | IFR | FBO | Links
Com | Nav | Svcs | Stats | Notes
Area around 3MS1 (Thomas Field Airport)
 
Road maps at: MapQuest Bing Google
 
Aerial photo
No photo
 
Sectional chart

 
Airport distance calculator
Flying to Thomas Field Airport? Find the distance to fly.

From to 3MS1

Sunrise and sunset
Times for 22-Jan-2020
 Local
(UTC-6)
 Zulu
(UTC)
Morning civil twilight06:3612:36
Sunrise07:0313:03
Sunset17:1623:16
Evening civil twilight17:4323:43

Current date and time
Zulu (UTC)  23-Jan-2020 02:51:56
Local (UTC-6)  22-Jan-2020 20:51:56
 
METAR
KOLV 
19nm NW 
230150Z 00000KT 10SM BKN100 BKN120 05/M08 A3018
KFYE 
24nm N 
230235Z AUTO 00000KT 10SM BKN110 04/M06 A3017 RMK A01
KUOX 
26nm S 
230235Z AUTO VRB06KT 10SM OVC110 04/M08 A3020 RMK AO2
KMEM 
30nm NW 
230154Z 14003KT 10SM FEW060 OVC120 06/M07 A3019 RMK AO2 SLP224 T00561067
KM08 
32nm NE 
230235Z AUTO 00000KT 10SM SCT100 SCT120 04/M06 A3018 RMK A01
KPMU 
34nm SW 
230235Z AUTO 00000KT 10SM FEW065 BKN080 OVC100 05/M05 A3019 RMK AO2
TAF
KMEM 
30nm NW 
222103Z 2221/2324 16008KT P6SM BKN150 FM230300 16004KT P6SM VCSH SCT050 OVC100 FM230500 16008KT 6SM -RA SCT025 OVC050 FM231200 15008KT 4SM RA SCT009 BKN025
NOTAMs
Click for the latest NOTAMs
NOTAMs are issued by the DoD/FAA and will open in a separate window not controlled by AirNav.

 

 
 

Would you like to see your business listed on this page?

 If your business provides an interesting product or service to pilots, flight crews, aircraft, or users of the Thomas Field Airport, you should consider listing it here.  To start the listing process, click on the button below
 
Add a business
 

Other Pages about Thomas Field Airport

Update a link
 
Copyright © AirNav, LLC. All rights reserved. Privacy Policy  Contact